Total_Precipitation_Accumulation
1.61 1.56 1.47 1.50 1.45 1.36 1.29 1.20 1.06 0.96 0.85 0.74 0.65 0.62 0.59 0.56 0.54 0.56 0.57 0.60 0.65 0.68 0.66 0.71 0.80 0.87 0.98 1.07 1.14 1.18 1.22 1.22 1.24 1.17 1.10 1.08 1.05 1.01 1.00 0.88 0.82 0.80 0.76
1.17 1.17 1.19 1.19 1.18 1.12 1.02 0.92 0.79 0.71 0.66 0.60 0.55 0.55 0.54 0.51 0.51 0.51 0.50 0.48 0.47 0.48 0.49 0.54 0.61 0.65 0.72 0.75 0.82 0.90 0.96 1.00 1.03 1.12 1.16 1.09 1.04 0.98 0.92 0.81 0.65 0.59 0.61
0.95 0.95 1.00 0.99 0.97 0.91 0.81 0.77 0.69 0.59 0.54 0.54 0.50 0.49 0.48 0.47 0.45 0.43 0.42 0.37 0.33 0.35 0.38 0.41 0.46 0.48 0.52 0.53 0.57 0.60 0.67 0.78 0.92 1.02 1.09 1.05 0.99 0.89 0.85 0.72 0.61 0.62 0.49
0.82 0.82 0.88 0.85 0.83 0.79 0.69 0.60 0.55 0.51 0.50 0.51 0.48 0.43 0.37 0.33 0.32 0.34 0.37 0.33 0.29 0.28 0.30 0.32 0.36 0.39 0.41 0.42 0.43 0.47 0.54 0.67 0.81 0.90 0.89 0.87 0.83 0.75 0.75 0.70 0.63 0.56 0.48
0.82 0.79 0.78 0.72 0.69 0.68 0.65 0.58 0.51 0.46 0.43 0.41 0.38 0.36 0.32 0.28 0.28 0.30 0.32 0.30 0.29 0.27 0.25 0.24 0.28 0.33 0.37 0.37 0.36 0.43 0.52 0.64 0.72 0.75 0.74 0.69 0.66 0.67 0.68 0.62 0.58 0.52 0.43
0.84 0.78 0.75 0.71 0.68 0.64 0.61 0.58 0.53 0.45 0.38 0.37 0.34 0.33 0.31 0.27 0.29 0.29 0.27 0.31 0.33 0.33 0.28 0.25 0.25 0.25 0.29 0.31 0.34 0.40 0.48 0.54 0.58 0.60 0.60 0.63 0.59 0.58 0.63 0.61 0.58 0.58 0.54
0.91 0.86 0.82 0.75 0.67 0.62 0.54 0.49 0.49 0.48 0.40 0.36 0.32 0.30 0.33 0.31 0.29 0.26 0.27 0.33 0.36 0.36 0.34 0.32 0.26 0.22 0.29 0.31 0.32 0.35 0.40 0.41 0.46 0.54 0.59 0.60 0.58 0.63 0.71 0.70 0.67 0.64 0.59
0.93 0.86 0.77 0.67 0.58 0.55 0.54 0.50 0.45 0.43 0.40 0.38 0.34 0.32 0.33 0.31 0.30 0.27 0.28 0.30 0.37 0.36 0.34 0.34 0.35 0.35 0.32 0.31 0.27 0.30 0.35 0.41 0.44 0.48 0.57 0.58 0.54 0.58 0.69 0.71 0.66 0.62 0.59
0.80 0.73 0.65 0.61 0.58 0.56 0.55 0.55 0.50 0.44 0.40 0.36 0.35 0.34 0.35 0.33 0.30 0.28 0.28 0.30 0.33 0.28 0.26 0.29 0.30 0.31 0.31 0.33 0.31 0.35 0.37 0.42 0.41 0.47 0.51 0.54 0.58 0.61 0.62 0.63 0.70 0.76 0.74
0.65 0.63 0.55 0.53 0.55 0.57 0.52 0.51 0.47 0.43 0.41 0.34 0.34 0.36 0.37 0.38 0.32 0.29 0.29 0.26 0.28 0.24 0.24 0.26 0.27 0.24 0.23 0.24 0.25 0.34 0.45 0.44 0.41 0.46 0.61 0.77 0.82 0.78 0.69 0.69 0.77 0.82 0.83
0.45 0.50 0.52 0.51 0.51 0.50 0.49 0.50 0.48 0.45 0.43 0.41 0.41 0.41 0.40 0.37 0.34 0.30 0.29 0.26 0.26 0.24 0.24 0.25 0.27 0.22 0.19 0.19 0.24 0.32 0.38 0.37 0.42 0.59 0.79 0.89 0.86 0.76 0.67 0.65 0.71 0.79 0.85
0.42 0.51 0.55 0.51 0.43 0.44 0.50 0.52 0.49 0.45 0.42 0.41 0.42 0.43 0.40 0.38 0.33 0.31 0.31 0.28 0.25 0.24 0.24 0.23 0.24 0.23 0.19 0.20 0.22 0.27 0.29 0.37 0.52 0.71 0.81 0.80 0.67 0.56 0.53 0.52 0.55 0.62 0.73
0.47 0.52 0.54 0.49 0.44 0.44 0.48 0.50 0.50 0.46 0.39 0.37 0.39 0.42 0.38 0.34 0.29 0.26 0.26 0.25 0.23 0.23 0.24 0.23 0.24 0.25 0.27 0.34 0.34 0.31 0.36 0.50 0.62 0.71 0.74 0.67 0.57 0.49 0.44 0.44 0.45 0.53 0.58
0.52 0.51 0.51 0.51 0.49 0.43 0.40 0.39 0.41 0.40 0.36 0.34 0.34 0.34 0.32 0.29 0.23 0.18 0.19 0.21 0.21 0.23 0.24 0.28 0.37 0.42 0.43 0.46 0.49 0.53 0.54 0.54 0.53 0.61 0.62 0.55 0.46 0.42 0.39 0.37 0.42 0.47 0.53
0.49 0.46 0.45 0.46 0.45 0.42 0.34 0.30 0.29 0.25 0.19 0.20 0.21 0.20 0.22 0.20 0.16 0.16 0.18 0.20 0.18 0.20 0.23 0.34 0.51 0.56 0.56 0.54 0.52 0.52 0.53 0.51 0.51 0.51 0.49 0.47 0.45 0.40 0.38 0.33 0.35 0.39 0.47
0.45 0.40 0.36 0.36 0.36 0.31 0.29 0.26 0.19 0.13 0.10 0.08 0.08 0.08 0.10 0.12 0.10 0.09 0.12 0.16 0.16 0.20 0.27 0.46 0.54 0.56 0.57 0.51 0.47 0.43 0.43 0.43 0.41 0.41 0.41 0.42 0.41 0.38 0.37 0.33 0.31 0.34 0.39
0.36 0.33 0.28 0.25 0.27 0.25 0.23 0.26 0.27 0.16 0.07 0.05 0.04 0.06 0.09 0.11 0.10 0.08 0.10 0.15 0.18 0.22 0.29 0.40 0.46 0.50 0.51 0.45 0.41 0.40 0.40 0.36 0.33 0.34 0.36 0.36 0.34 0.33 0.32 0.31 0.29 0.30 0.35
0.22 0.17 0.17 0.19 0.19 0.18 0.17 0.18 0.20 0.24 0.22 0.17 0.09 0.05 0.08 0.11 0.11 0.11 0.12 0.18 0.24 0.25 0.29 0.33 0.37 0.40 0.42 0.40 0.37 0.34 0.31 0.29 0.26 0.26 0.28 0.30 0.30 0.29 0.27 0.27 0.26 0.25 0.30
0.17 0.16 0.13 0.11 0.12 0.12 0.11 0.10 0.10 0.12 0.19 0.23 0.21 0.12 0.10 0.12 0.14 0.15 0.15 0.18 0.23 0.24 0.26 0.28 0.28 0.28 0.29 0.30 0.31 0.31 0.27 0.25 0.23 0.22 0.22 0.23 0.25 0.25 0.26 0.22 0.20 0.16 0.21
0.15 0.11 0.09 0.08 0.08 0.07 0.07 0.06 0.07 0.09 0.13 0.18 0.18 0.13 0.13 0.19 0.22 0.19 0.16 0.15 0.17 0.19 0.21 0.24 0.24 0.24 0.23 0.22 0.21 0.21 0.21 0.19 0.17 0.17 0.19 0.21 0.21 0.20 0.20 0.18 0.17 0.17 0.18
0.07 0.05 0.04 0.03 0.05 0.04 0.03 0.03 0.04 0.06 0.10 0.13 0.09 0.07 0.12 0.20 0.24 0.21 0.17 0.16 0.17 0.18 0.20 0.21 0.20 0.19 0.17 0.15 0.13 0.13 0.13 0.13 0.14 0.15 0.17 0.18 0.17 0.15 0.13 0.11 0.09 0.08 0.08
0.03 0.03 0.02 0.02 0.02 0.02 0.02 0.02 0.02 0.04 0.06 0.07 0.06 0.06 0.10 0.14 0.18 0.19 0.18 0.17 0.17 0.18 0.19 0.18 0.17 0.16 0.15 0.13 0.11 0.11 0.10 0.11 0.14 0.15 0.16 0.17 0.14 0.09 0.07 0.06 0.05 0.04 0.03
0.02 0.02 0.02 0.02 0.02 0.01 0.01 0.02 0.01 0.02 0.02 0.03 0.04 0.05 0.06 0.10 0.13 0.17 0.18 0.16 0.16 0.16 0.15 0.14 0.13 0.12 0.11 0.10 0.10 0.10 0.09 0.10 0.10 0.12 0.15 0.15 0.10 0.06 0.05 0.04 0.03 0.03 0.02
0.01 0.01 0.01 0.02 0.01 0.01 0.01 0.01 0.01 0.01 0.01 0.02 0.03 0.05 0.06 0.07 0.09 0.14 0.20 0.20 0.17 0.15 0.13 0.10 0.09 0.09 0.08 0.07 0.06 0.05 0.05 0.06 0.06 0.09 0.12 0.12 0.07 0.05 0.03 0.03 0.03 0.03 0.03
0.01 0.01 0.01 0.01 0.01 0.01 0.01 0.01 0.01 0.01 0.01 0.01 0.03 0.04 0.04 0.04 0.05 0.09 0.15 0.20 0.19 0.15 0.10 0.07 0.05 0.04 0.04 0.04 0.03 0.02 0.03 0.03 0.04 0.06 0.10 0.11 0.06 0.04 0.03 0.02 0.02 0.02 0.03
0.00 0.01 0.00 0.00 0.00 0.01 0.01 0.01 0.01 0.01 0.01 0.01 0.02 0.03 0.02 0.02 0.03 0.05 0.08 0.12 0.15 0.14 0.11 0.07 0.04 0.03 0.02 0.02 0.02 0.01 0.01 0.02 0.02 0.03 0.07 0.09 0.06 0.04 0.03 0.02 0.02 0.02 0.04